• In Belarus
  • List of Countries
  • For 7 days
  • Water Temperature
  • Satellite Maps
  • Weather Map
  • Weather Widgets
  • user-avatar
    Login

    Hourly Weather Kozani

    Today, 16 December, Sunday

    Time Temperature Precipitation Wind Pressure Humidity
    00:00 +7°C° 0.1 mm 1 mps 699 mmHg 94%
    01:00 +7°C° 0.1 mm 1 mps 699 mmHg 94%
    02:00 +7°C° 0.2 mm 1 mps 699 mmHg 93%
    03:00 +7°C° 0.2 mm 1 mps 699 mmHg 93%
    04:00 +7°C° 0.2 mm 1 mps 699 mmHg 93%
    05:00 +7°C° 0.1 mm 1 mps 699 mmHg 93%
    06:00 +7°C° 0.1 mm 1 mps 699 mmHg 93%
    07:00 +6°C° 0.1 mm 1 mps 699 mmHg 93%
    08:00 +8°C° 0.1 mm 1 mps 700 mmHg 87%
    09:00 +9°C° 0.1 mm 1 mps 700 mmHg 82%
    10:00 +9°C° 0.1 mm 2 mps 701 mmHg 76%
    11:00 +9°C° 0.1 mm 2 mps 701 mmHg 75%
    12:00 +8°C° 0.1 mm 3 mps 701 mmHg 73%
    13:00 +8°C° 0.1 mm 3 mps 701 mmHg 71%
    14:00 +8°C° 0.1 mm 3 mps 701 mmHg 72%
    15:00 +7°C° 0.1 mm 3 mps 701 mmHg 73%
    16:00 +5°C° 0.1 mm 3 mps 701 mmHg 74%
    17:00 +4°C° 0 mm 3 mps 702 mmHg 76%
    18:00 +3°C° 0 mm 3 mps 702 mmHg 77%
    19:00 +3°C° 0 mm 2 mps 702 mmHg 79%
    20:00 +2°C° 0 mm 2 mps 703 mmHg 79%
    21:00 +2°C° 0 mm 2 mps 703 mmHg 80%
    22:00 +2°C° 0 mm 2 mps 703 mmHg 80%
    23:00 +2°C° 0 mm 2 mps 703 mmHg 80%

    Tomorrow, 17 December, Monday

    Time Temperature Precipitation Wind Pressure Humidity
    00:00 +1°C° 0 mm 2 mps 703 mmHg 80%
    01:00 +1°C° 0 mm 2 mps 703 mmHg 80%
    02:00 +1°C° 0 mm 2 mps 703 mmHg 79%
    03:00 +2°C° 0 mm 1 mps 703 mmHg 78%
    04:00 +2°C° 0 mm 1 mps 703 mmHg 77%
    05:00 +3°C° 0 mm 1 mps 703 mmHg 75%
    06:00 +3°C° 0 mm 1 mps 703 mmHg 73%
    07:00 +3°C° 0 mm 1 mps 703 mmHg 71%
    08:00 +4°C° 0 mm 1 mps 703 mmHg 66%
    09:00 +5°C° 0 mm 1 mps 703 mmHg 61%
    10:00 +5°C° 0 mm 0 mps 703 mmHg 57%
    11:00 +5°C° 0.2 mm 0 mps 703 mmHg 58%
    12:00 +7°C° 0.2 mm 1 mps 703 mmHg 59%
    13:00 +7°C° 0.2 mm 1 mps 702 mmHg 60%
    14:00 +6°C° 0.1 mm 1 mps 702 mmHg 63%
    15:00 +6°C° 0.1 mm 1 mps 702 mmHg 66%
    16:00 +5°C° 0.1 mm 1 mps 701 mmHg 70%
    17:00 +5°C° 0.1 mm 1 mps 701 mmHg 71%
    18:00 +5°C° 0.1 mm 1 mps 701 mmHg 72%
    19:00 +4°C° 0.1 mm 1 mps 701 mmHg 73%
    20:00 +4°C° 0.5 mm 1 mps 701 mmHg 74%
    21:00 +3°C° 0.5 mm 2 mps 701 mmHg 75%
    22:00 +3°C° 0.5 mm 2 mps 701 mmHg 76%
    23:00 +3°C° 0.8 mm 2 mps 701 mmHg 79%

    Day after tomorrow, 18 December, Tuesday

    Time Temperature Precipitation Wind Pressure Humidity
    00:00 +2°C° 0.8 mm 2 mps 701 mmHg 82%
    01:00 +2°C° 0.8 mm 2 mps 701 mmHg 86%
    02:00 +2°C° 1.1 mm 2 mps 701 mmHg 88%
    03:00 +2°C° 1.1 mm 2 mps 701 mmHg 90%
    04:00 +1°C° 1.1 mm 2 mps 701 mmHg 92%
    05:00 +1°C° 0.8 mm 2 mps 701 mmHg 91%
    06:00 +1°C° 0.8 mm 2 mps 701 mmHg 91%
    07:00 +1°C° 0.8 mm 2 mps 701 mmHg 91%
    08:00 +1°C° 0.9 mm 2 mps 702 mmHg 91%
    09:00 +1°C° 0.9 mm 3 mps 702 mmHg 91%
    10:00 +1°C° 0.9 mm 3 mps 702 mmHg 91%
    11:00 +1°C° 1 mm 3 mps 702 mmHg 91%
    12:00 +1°C° 1 mm 3 mps 702 mmHg 91%
    13:00 +1°C° 1 mm 3 mps 702 mmHg 90%
    14:00 +1°C° 0.5 mm 3 mps 703 mmHg 90%
    15:00 +1°C° 0.5 mm 3 mps 703 mmHg 90%
    16:00 +1°C° 0.5 mm 3 mps 704 mmHg 90%
    17:00 +2°C° 0.1 mm 2 mps 704 mmHg 89%
    18:00 +1°C° 0.1 mm 2 mps 705 mmHg 89%
    19:00 +1°C° 0.1 mm 2 mps 705 mmHg 89%
    20:00 -1°C° 0 mm 2 mps 705 mmHg 88%
    21:00 -1°C° 0 mm 2 mps 706 mmHg 88%
    22:00 -1°C° 0 mm 2 mps 706 mmHg 87%
    23:00 -1°C° 0 mm 2 mps 706 mmHg 87%

    19 December, Wednesday

    Time Temperature Precipitation Wind Pressure Humidity
    00:00 -2°C° 0 mm 2 mps 706 mmHg 86%
    01:00 -2°C° 0 mm 2 mps 706 mmHg 85%
    02:00 -2°C° 0 mm 2 mps 706 mmHg 85%
    03:00 -2°C° 0 mm 2 mps 706 mmHg 85%
    04:00 -2°C° 0 mm 2 mps 706 mmHg 85%
    05:00 -2°C° 0 mm 2 mps 706 mmHg 84%
    06:00 -2°C° 0 mm 2 mps 707 mmHg 84%
    07:00 0°C° 0 mm 1 mps 707 mmHg 84%
    08:00 +1°C° 0 mm 1 mps 707 mmHg 83%
    09:00 +3°C° 0 mm 1 mps 708 mmHg 83%
    10:00 +4°C° 0 mm 1 mps 708 mmHg 82%
    11:00 +5°C° 0 mm 1 mps 708 mmHg 82%
    12:00 +6°C° 0 mm 1 mps 708 mmHg 81%
    13:00 +5°C° 0 mm 0 mps 707 mmHg 81%
    14:00 +4°C° 0 mm 0 mps 707 mmHg 82%
    15:00 +3°C° 0 mm 0 mps 707 mmHg 83%
    16:00 +2°C° 0 mm 0 mps 707 mmHg 83%
    17:00 +3°C° 0 mm 1 mps 707 mmHg 83%
    18:00 +3°C° 0 mm 1 mps 707 mmHg 83%
    19:00 +2°C° 0 mm 1 mps 708 mmHg 82%
    20:00 +2°C° 0 mm 1 mps 708 mmHg 82%
    21:00 +1°C° 0 mm 0 mps 708 mmHg 82%
    22:00 +1°C° 0 mm 0 mps 708 mmHg 82%
    23:00 +1°C° 0 mm 0 mps 708 mmHg 82%

    20 December, Thursday

    Time Temperature Precipitation Wind Pressure Humidity
    00:00 +1°C° 0 mm 0 mps 708 mmHg 82%
    01:00 +1°C° 0 mm 1 mps 708 mmHg 82%
    02:00 +1°C° 0 mm 1 mps 708 mmHg 83%
    03:00 +1°C° 0 mm 1 mps 708 mmHg 83%
    04:00 +1°C° 0 mm 1 mps 708 mmHg 84%
    05:00 +1°C° 0 mm 1 mps 708 mmHg 85%
    06:00 +2°C° 0 mm 1 mps 709 mmHg 86%
    07:00 +2°C° 0 mm 1 mps 709 mmHg 87%
    08:00 +3°C° 0 mm 1 mps 709 mmHg 86%
    09:00 +4°C° 0 mm 1 mps 709 mmHg 86%
    10:00 +5°C° 0 mm 1 mps 710 mmHg 86%
    11:00 +5°C° 0 mm 1 mps 709 mmHg 86%
    12:00 +5°C° 0 mm 2 mps 709 mmHg 86%
    13:00 +5°C° 0 mm 2 mps 709 mmHg 85%
    14:00 +5°C° 0 mm 2 mps 709 mmHg 88%
    15:00 +5°C° 0 mm 1 mps 709 mmHg 90%
    16:00 +4°C° 0 mm 1 mps 709 mmHg 93%
    17:00 +4°C° 0 mm 1 mps 709 mmHg 93%
    18:00 +4°C° 0 mm 1 mps 709 mmHg 93%
    19:00 +3°C° 0 mm 1 mps 709 mmHg 94%
    20:00 +3°C° 0 mm 1 mps 709 mmHg 94%
    21:00 +3°C° 0 mm 1 mps 709 mmHg 94%
    22:00 +3°C° 0 mm 1 mps 709 mmHg 94%
    23:00 +3°C° 0.1 mm 1 mps 709 mmHg 94%

    21 December, Friday

    Time Temperature Precipitation Wind Pressure Humidity
    00:00 +3°C° 0.1 mm 1 mps 708 mmHg 94%
    01:00 +4°C° 0.1 mm 1 mps 708 mmHg 94%
    02:00 +4°C° 0.3 mm 1 mps 708 mmHg 94%
    03:00 +4°C° 0.3 mm 1 mps 707 mmHg 94%
    04:00 +4°C° 0.3 mm 1 mps 707 mmHg 95%
    05:00 +4°C° 0.6 mm 1 mps 707 mmHg 95%
    06:00 +4°C° 0.6 mm 1 mps 707 mmHg 95%
    07:00 +4°C° 0.6 mm 1 mps 707 mmHg 95%
    08:00 +5°C° 0.9 mm 1 mps 707 mmHg 94%
    09:00 +5°C° 0.9 mm 1 mps 707 mmHg 94%
    10:00 +5°C° 0.9 mm 1 mps 707 mmHg 93%
    11:00 +6°C° 0.5 mm 1 mps 707 mmHg 92%
    12:00 +6°C° 0.5 mm 1 mps 706 mmHg 91%
    13:00 +7°C° 0.5 mm 1 mps 706 mmHg 89%
    14:00 +6°C° 0.1 mm 1 mps 706 mmHg 91%
    15:00 +6°C° 0.1 mm 1 mps 706 mmHg 92%
    16:00 +6°C° 0.1 mm 1 mps 706 mmHg 93%
    17:00 +5°C° 0.1 mm 1 mps 706 mmHg 94%
    18:00 +5°C° 0.1 mm 1 mps 706 mmHg 94%
    19:00 +5°C° 0.1 mm 1 mps 706 mmHg 94%
    20:00 +4°C° 0.1 mm 1 mps 706 mmHg 94%
    21:00 +4°C° 0.1 mm 1 mps 706 mmHg 93%
    22:00 +4°C° 0.1 mm 1 mps 706 mmHg 93%
    23:00 +4°C° 0 mm 1 mps 706 mmHg 93%
    Show more